Regional Weather Roundup
Issued by NWS

Home | Current Version | Previous Version | Graphics & Text | Print | Product List | Glossary Off
Versions: 1 2 3 4 5 6 7 8 9 10 11 12 13 14 15 16 17 18 19 20 21 22 23 24 25 26 27 28 29 30 31 32 33 34 35 36 37 38 39 40 41 42 43 44 45 46 47 48 49 50

000
ASUS43 KLSX 182059
RWRMO

WEATHER SUMMARY FOR MISSOURI
NATIONAL WEATHER SERVICE SPRINGFIELD MO
400 PM CDT FRI APR 18 2014

NOTE: "FAIR" INDICATES FEW OR NO CLOUDS BELOW 12,000 FEET WITH NO
       SIGNIFICANT WEATHER AND/OR OBSTRUCTIONS TO VISIBILITY.
       CURRENT SKY AND/OR WEATHER CONDITIONS ARE NOT AVAILABLE FOR
       CHILLICOTHE AND FARMINGTON.

MOZ001>031-035>038-043-044-053-054-182200-
...NORTHERN AND WESTERN MISSOURI...

CITY           SKY/WX    TMP DP  RH WIND       PRES   REMARKS
KANSAS CTY INT MOSUNNY   67  40  37 S9        30.21F
KANSAS C DTWN  SUNNY     68  40  35 CALM      30.20F
LEE`S SUMMIT   SUNNY     67  41  38 S10       30.22F
ST JOSEPH      SUNNY     68  38  33 S10       30.20F
KIRKSVILLE     SUNNY     65  34  31 VRB3      30.26F

$$
MOZ066>068-077>081-088>096-101>105-182200-
...SOUTHWEST MISSOURI...

CITY           SKY/WX    TMP DP  RH WIND       PRES   REMARKS
SPRINGFIELD    MOSUNNY   71  39  31 VRB7      30.19F
JOPLIN         SUNNY     71  40  32 VRB5      30.19F

$$
MOZ032>034-039>042-045>050-055>058-069>072-182200-
...CENTRAL MISSOURI...

CITY           SKY/WX    TMP DP  RH WIND       PRES   REMARKS
COLUMBIA       SUNNY     69  40  34 CALM      30.24F
JEFFERSON CITY SUNNY     69  39  33 W6        30.22F
ROLLA          MOSUNNY   69  41  36 CALM      30.21F
SEDALIA        SUNNY     69  44  40 MISG      30.23F
OSAGE BEACH    SUNNY     70  37  30 NE6       30.23F

$$
MOZ051-052-059>065-182200-
...EAST CENTRAL MISSOURI...

CITY           SKY/WX    TMP DP  RH WIND       PRES   REMARKS
ST LOUIS INTL  MOSUNNY   70  40  33 CALM      30.25F
SPIRIT OF STL  MOSUNNY   69  40  34 CALM      30.24F
ST CHARLES     SUNNY     69  42  37 CALM      30.24F

$$
MOZ072>076-082>087-097>100-106>115-182200-
...SOUTH CENTRAL AND SOUTHEAST MISSOURI...

CITY           SKY/WX    TMP DP  RH WIND       PRES   REMARKS
CAPE GIRARDEAU SUNNY     74  41  30 N7        30.20F
FARMINGTON     MOSUNNY   70  43  37 E9        30.24F
POPLAR BLUFF   SUNNY     73  42  32 NE6       30.18F
WEST PLAINS    MOSUNNY   71  38  29 E5        30.20F

$$



USA.gov is the U.S. government's official web portal to all federal, state and local government web resources and services.